DW3414 Weather Reports


time (UTC)temp
C
wind
direction
speed
KPH
gust
KPH
rain 1hr
cm
rain 24hr
cm
rain mn
cm
humidity
%
barometer
mb
20260510015123 15 171 0.0 0.0 0.00 0.00 0.00 73 1007.9
20260510005054 17 171 0.0 0.0 0.00 0.00 0.00 62 1006.8
20260510002053 20 171 0.0 0.0 0.00 0.00 0.00 57 1006.0
20260509235124 22 171 0.0 11.3 0.00 0.00 0.00 49 1005.9
20260509232053 22 156 0.0 14.5 0.00 0.00 0.00 46 1005.8
20260509222054 23 154 3.2 14.5 0.00 0.00 0.00 45 1005.6
20260509215123 22 153 3.2 20.9 0.00 0.00 0.00 45 1005.4
20260509212053 23 151 1.6 14.5 0.00 0.00 0.00 44 1005.4
20260509205053 23 139 4.8 24.1 0.00 0.00 0.00 43 1005.4
20260509202053 24 163 4.8 30.6 0.00 0.00 0.00 43 1005.0
20260509195054 23 155 6.4 25.7 0.00 0.00 0.00 41 1005.3
20260509192054 22 153 4.8 25.7 0.00 0.00 0.00 44 1005.6
20260509185053 22 173 12.9 20.9 0.00 0.00 0.00 46 1006.0
20260509182054 21 150 4.8 19.3 0.00 0.00 0.00 48 1006.4
20260509175053 21 162 6.4 17.7 0.00 0.00 0.00 51 1007.0
20260509162053 20 163 4.8 22.5 0.00 0.00 0.00 53 1007.3
20260509155053 20 155 8.0 19.3 0.00 0.00 0.00 55 1007.4
20260509152053 20 135 12.9 16.1 0.00 0.00 0.00 53 1007.5
20260509145053 20 119 8.0 17.7 0.00 0.00 0.00 54 1007.6
20260509142053 18 103 12.9 19.3 0.00 0.00 0.00 58 1007.8
20260509135054 17 141 4.8 16.1 0.00 0.00 0.00 61 1008.3
20260509132053 16 116 12.9 17.7 0.00 0.00 0.00 61 1008.6
20260509122053 13 165 0.0 0.0 0.00 0.00 0.00 72 1008.5
20260509115053 12 165 0.0 0.0 0.00 0.00 0.00 72 1008.5
20260509112053 12 165 0.0 0.0 0.00 0.00 0.00 70 1008.7
20260509105053 12 167 0.0 0.0 0.00 0.00 0.00 71 1008.7
20260509102053 12 167 0.0 0.0 0.00 0.00 0.00 68 1008.8
20260509092053 12 167 0.0 0.0 0.00 0.00 0.00 62 1009.2
20260509085123 12 167 0.0 0.0 0.00 0.00 0.00 62 1009.2
20260509075053 12 167 0.0 0.0 0.00 0.00 0.00 66 1009.3
20260509065053 11 162 0.0 0.0 0.00 0.00 0.00 72 1009.8
20260509062053 11 161 0.0 0.0 0.00 0.00 0.00 72 1010.0
20260509055054 11 160 0.0 0.0 0.00 0.00 0.00 73 1010.1
20260509052053 11 134 0.0 0.0 0.00 0.00 0.00 72 1010.2
20260509045053 12 134 0.0 0.0 0.00 0.00 0.00 68 1010.3
20260509042053 13 134 0.0 12.9 0.00 0.00 0.00 57 1010.2
20260509035123 15 105 6.4 17.7 0.00 0.00 0.00 53 1010.4
20260509032053 15 123 14.5 14.5 0.00 0.00 0.00 52 1010.3
20260509025123 15 104 0.0 0.0 0.00 0.00 0.00 53 1010.4
20260509022053 15 108 0.0 0.0 0.00 0.00 0.00 53 1010.3